Location: Brantley
(31.5822°N, 86.2569°W)
Time: 19:40:24
(UTC+00:00)

Courier 1B Rocket - Pass Details

Date: 24 February 2026
Orbit: 920 x 1201 km, 28.2° (Epoch: 10 March)

Event Time Altitude Azimuth Distance (km) Brightness Sun altitude
Rises 03:24:02 0° 272° (W) 3,553 8.6 -48.0°
Enters shadow 03:26:33 - 263° (W) 2,718 7.8 -48.5°
Reaches altitude 10° 03:26:51 10° 262° (W) 2,623 - -48.6°
Maximum altitude 03:32:21 32° 201° (SSW) 1,569 - -49.6°
Drops below altitude 10° 03:38:05 10° 140° (SE) 2,738 - -50.7°
Sets 03:41:06 0° 131° (SE) 3,731 - -51.3°
